Time,TemperatureF,DewpointF,PressureIn,WindDirection,WindDirectionDegrees,WindSpeedMPH,WindSpeedGustMPH,Humidity,HourlyPrecipIn,Conditions,Clouds,dailyrainin,SoftwareType,DateUTC
2014-01-15 00:00:00,31.5,19.6,29.73,WSW,248,7.0,21.0,61,0.00,,,0.00,Wunderground v.1.12,2014-01-15 05:00:00,
2014-01-15 00:10:00,31.5,19.6,29.73,WSW,248,7.0,21.0,61,0.00,,,0.00,Wunderground v.1.12,2014-01-15 05:10:00,
2014-01-15 00:20:00,31.0,19.1,29.72,SW,224,8.0,9.0,61,0.00,,,0.00,Wunderground v.1.12,2014-01-15 05:20:00,
2014-01-15 00:30:00,31.5,20.0,29.73,WSW,248,8.0,22.0,62,0.00,,,0.00,Wunderground v.1.12,2014-01-15 05:30:00,
2014-01-15 00:40:00,31.2,18.9,29.73,WSW,248,11.0,24.0,60,0.00,,,0.00,Wunderground v.1.12,2014-01-15 05:40:00,
2014-01-15 00:50:00,30.4,18.5,29.72,WSW,250,11.0,11.0,61,0.00,,,0.00,Wunderground v.1.12,2014-01-15 05:50:00,
2014-01-15 01:00:00,31.0,18.7,29.72,WSW,248,9.0,26.0,60,0.00,,,0.00,Wunderground v.1.12,2014-01-15 06:00:00,
2014-01-15 01:10:00,31.0,19.1,29.72,WSW,248,8.0,19.0,61,0.00,,,0.00,Wunderground v.1.12,2014-01-15 06:10:00,
2014-01-15 01:20:00,29.8,18.7,29.72,SW,217,10.0,10.0,63,0.00,,,0.00,Wunderground v.1.12,2014-01-15 06:20:00,
2014-01-15 01:50:00,29.3,18.3,29.73,WSW,246,9.0,9.0,63,0.00,,,0.00,Wunderground v.1.12,2014-01-15 06:50:00,
2014-01-15 02:00:00,30.3,18.5,29.72,WSW,248,10.0,24.0,61,0.00,,,0.00,Wunderground v.1.12,2014-01-15 07:00:00,
2014-01-15 02:10:00,29.8,18.4,29.72,SW,225,9.0,22.0,62,0.00,,,0.00,Wunderground v.1.12,2014-01-15 07:10:00,
2014-01-15 02:20:00,28.4,17.0,29.73,West,274,11.0,11.0,62,0.00,,,0.00,Wunderground v.1.12,2014-01-15 07:20:00,
2014-01-15 02:40:00,29.7,18.6,29.72,WSW,248,9.0,30.0,63,0.00,,,0.00,Wunderground v.1.12,2014-01-15 07:40:00,
2014-01-15 02:50:00,29.4,18.7,29.73,WSW,248,9.0,19.0,64,0.00,,,0.00,Wunderground v.1.12,2014-01-15 07:50:00,
2014-01-15 03:00:00,29.0,18.0,29.73,West,270,8.0,21.0,63,0.00,,,0.00,Wunderground v.1.12,2014-01-15 08:00:00,
2014-01-15 03:10:00,28.7,17.3,29.74,West,270,10.0,24.0,62,0.00,,,0.00,Wunderground v.1.12,2014-01-15 08:10:00,
2014-01-15 03:20:00,27.0,14.6,29.76,WSW,244,9.0,9.0,59,0.00,,,0.00,Wunderground v.1.12,2014-01-15 08:20:00,
2014-01-15 03:40:00,28.2,16.8,29.74,WSW,248,8.0,27.0,62,0.00,,,0.00,Wunderground v.1.12,2014-01-15 08:40:00,
2014-01-15 03:50:00,28.1,15.2,29.75,West,270,9.0,21.0,58,0.00,,,0.00,Wunderground v.1.12,2014-01-15 08:50:00,
2014-01-15 04:10:00,27.9,14.6,29.76,WSW,248,9.0,24.0,57,0.00,,,0.00,Wunderground v.1.12,2014-01-15 09:10:00,
2014-01-15 04:20:00,27.3,14.5,29.76,WSW,248,11.0,25.0,58,0.00,,,0.00,Wunderground v.1.12,2014-01-15 09:20:00,
2014-01-15 04:40:00,26.9,14.9,29.77,WSW,248,8.0,20.0,60,0.00,,,0.00,Wunderground v.1.12,2014-01-15 09:40:00,
2014-01-15 04:50:00,26.4,14.4,29.77,WSW,248,8.0,17.0,60,0.00,,,0.00,Wunderground v.1.12,2014-01-15 09:50:00,
2014-01-15 05:10:00,26.3,14.3,29.78,SW,225,8.0,22.0,60,0.00,,,0.00,Wunderground v.1.12,2014-01-15 10:10:00,
2014-01-15 05:20:00,26.1,14.5,29.78,WSW,248,9.0,22.0,61,0.00,,,0.00,Wunderground v.1.12,2014-01-15 10:20:00,
2014-01-15 05:30:00,25.8,14.6,29.78,WSW,248,8.0,22.0,62,0.00,,,0.00,Wunderground v.1.12,2014-01-15 10:30:00,
2014-01-15 05:40:00,25.8,14.9,29.79,SW,225,6.0,21.0,63,0.00,,,0.00,Wunderground v.1.12,2014-01-15 10:40:00,
2014-01-15 05:50:00,25.1,15.0,29.81,WSW,256,10.0,10.0,65,0.00,,,0.00,Wunderground v.1.12,2014-01-15 10:50:00,
2014-01-15 06:00:00,25.7,14.5,29.79,SW,225,7.0,20.0,62,0.00,,,0.00,Wunderground v.1.12,2014-01-15 11:00:00,
2014-01-15 06:10:00,25.4,14.9,29.79,SW,225,6.0,19.0,64,0.00,,,0.00,Wunderground v.1.12,2014-01-15 11:10:00,
2014-01-15 06:20:00,24.8,15.7,29.81,SW,216,9.0,11.0,68,0.00,,,0.00,Wunderground v.1.12,2014-01-15 11:20:00,
2014-01-15 06:30:00,25.3,14.8,29.80,SW,225,8.0,27.0,64,0.00,,,0.00,Wunderground v.1.12,2014-01-15 11:30:00,
2014-01-15 06:40:00,25.3,15.2,29.81,SW,225,10.0,25.0,65,0.00,,,0.00,Wunderground v.1.12,2014-01-15 11:40:00,
2014-01-15 06:50:00,24.4,15.7,29.82,SW,232,10.0,11.0,69,0.00,,,0.00,Wunderground v.1.12,2014-01-15 11:50:00,
2014-01-15 07:00:00,25.1,15.3,29.81,SW,225,10.0,24.0,66,0.00,,,0.00,Wunderground v.1.12,2014-01-15 12:00:00,
2014-01-15 07:10:00,24.8,15.4,29.81,WSW,248,9.0,20.0,67,0.00,,,0.00,Wunderground v.1.12,2014-01-15 12:10:00,
2014-01-15 07:20:00,24.4,16.0,29.83,WSW,253,8.0,11.0,70,0.00,,,0.00,Wunderground v.1.12,2014-01-15 12:20:00,
2014-01-15 07:30:00,24.7,15.6,29.81,SW,225,9.0,25.0,68,0.00,,,0.00,Wunderground v.1.12,2014-01-15 12:30:00,
2014-01-15 07:40:00,24.4,15.7,29.82,SW,225,7.0,21.0,69,0.00,,,0.00,Wunderground v.1.12,2014-01-15 12:40:00,
2014-01-15 07:50:00,24.4,15.7,29.82,SW,225,7.0,21.0,69,0.00,,,0.00,Wunderground v.1.12,2014-01-15 12:50:00,
2014-01-15 08:10:00,24.4,16.0,29.83,WSW,248,10.0,24.0,70,0.00,,,0.00,Wunderground v.1.12,2014-01-15 13:10:00,
2014-01-15 08:20:00,24.5,16.4,29.85,WSW,240,9.0,9.0,71,0.00,,,0.00,Wunderground v.1.12,2014-01-15 13:20:00,
2014-01-15 08:30:00,24.2,15.8,29.83,WSW,248,8.0,22.0,70,0.00,,,0.00,Wunderground v.1.12,2014-01-15 13:30:00,
2014-01-15 08:40:00,24.2,15.8,29.83,WSW,248,8.0,22.0,70,0.00,,,0.00,Wunderground v.1.12,2014-01-15 13:40:00,
2014-01-15 08:50:00,24.7,17.0,29.87,WSW,243,9.0,9.0,72,0.00,,,0.00,Wunderground v.1.12,2014-01-15 13:50:00,
2014-01-15 09:00:00,24.2,15.8,29.84,WSW,248,10.0,24.0,70,0.00,,,0.00,Wunderground v.1.12,2014-01-15 14:00:00,
2014-01-15 09:10:00,24.4,16.3,29.85,WSW,248,9.0,21.0,71,0.00,,,0.00,Wunderground v.1.12,2014-01-15 14:10:00,
2014-01-15 09:20:00,24.4,16.3,29.85,WSW,248,9.0,21.0,71,0.00,,,0.00,Wunderground v.1.12,2014-01-15 14:20:00,
2014-01-15 09:40:00,24.5,16.4,29.86,SW,225,8.0,24.0,71,0.00,,,0.00,Wunderground v.1.12,2014-01-15 14:40:00,
2014-01-15 09:50:00,24.7,17.0,29.87,WSW,248,8.0,21.0,72,0.00,,,0.00,Wunderground v.1.12,2014-01-15 14:50:00,
2014-01-15 10:00:00,24.8,17.1,29.88,SW,225,8.0,20.0,72,0.00,,,0.00,Wunderground v.1.12,2014-01-15 15:00:00,
2014-01-15 10:10:00,25.0,17.2,29.89,SW,225,9.0,18.0,72,0.00,,,0.00,Wunderground v.1.12,2014-01-15 15:10:00,
2014-01-15 10:20:00,25.1,18.3,29.93,SW,236,8.0,8.0,75,0.00,,,0.00,Wunderground v.1.12,2014-01-15 15:20:00,
2014-01-15 10:40:00,25.4,17.6,29.90,WSW,248,7.0,17.0,72,0.00,,,0.00,Wunderground v.1.12,2014-01-15 15:40:00,
2014-01-15 10:50:00,25.1,18.9,29.93,WSW,241,6.0,7.0,77,0.00,,,0.00,Wunderground v.1.12,2014-01-15 15:50:00,
2014-01-15 11:10:00,25.4,18.3,29.92,WSW,248,7.0,19.0,74,0.00,,,0.00,Wunderground v.1.12,2014-01-15 16:10:00,
2014-01-15 11:20:00,25.1,18.3,29.92,WSW,248,7.0,19.0,75,0.00,,,0.00,Wunderground v.1.12,2014-01-15 16:20:00,
2014-01-15 11:40:00,25.1,18.6,29.93,SW,225,8.0,20.0,76,0.00,,,0.00,Wunderground v.1.12,2014-01-15 16:40:00,
2014-01-15 11:50:00,25.1,18.9,29.93,WSW,248,7.0,20.0,77,0.00,,,0.00,Wunderground v.1.12,2014-01-15 16:50:00,
2014-01-15 12:00:00,25.3,19.1,29.93,SW,225,7.0,17.0,77,0.00,,,0.00,Wunderground v.1.12,2014-01-15 17:00:00,
2014-01-15 12:10:00,25.6,19.1,29.94,WSW,248,6.0,16.0,76,0.00,,,0.00,Wunderground v.1.12,2014-01-15 17:10:00,
2014-01-15 12:20:00,26.7,18.6,29.93,WSW,250,6.0,6.0,71,0.00,,,0.00,Wunderground v.1.12,2014-01-15 17:20:00,
2014-01-15 12:30:00,25.8,18.7,29.94,WSW,248,4.0,14.0,74,0.00,,,0.00,Wunderground v.1.12,2014-01-15 17:30:00,
2014-01-15 12:40:00,26.1,18.3,29.94,WSW,248,5.0,16.0,72,0.00,,,0.00,Wunderground v.1.12,2014-01-15 17:40:00,
2014-01-15 12:50:00,26.7,17.2,29.92,WNW,287,7.0,11.0,67,0.00,,,0.00,Wunderground v.1.12,2014-01-15 17:50:00,
2014-01-15 13:10:00,26.4,18.3,29.94,WSW,248,7.0,20.0,71,0.00,,,0.00,Wunderground v.1.12,2014-01-15 18:10:00,
2014-01-15 13:20:00,26.6,18.5,29.93,WSW,248,6.0,17.0,71,0.00,,,0.00,Wunderground v.1.12,2014-01-15 18:20:00,
2014-01-15 13:40:00,26.7,17.9,29.93,WSW,248,6.0,17.0,69,0.00,,,0.00,Wunderground v.1.12,2014-01-15 18:40:00,
2014-01-15 13:50:00,26.9,17.7,29.92,West,270,7.0,20.0,68,0.00,,,0.00,Wunderground v.1.12,2014-01-15 18:50:00,
2014-01-15 14:00:00,26.9,17.4,29.92,West,270,7.0,17.0,67,0.00,,,0.00,Wunderground v.1.12,2014-01-15 19:00:00,
2014-01-15 14:10:00,26.7,16.9,29.92,West,270,6.0,18.0,66,0.00,,,0.00,Wunderground v.1.12,2014-01-15 19:10:00,
2014-01-15 14:20:00,27.0,16.4,29.93,WSW,250,5.0,5.0,64,0.00,,,0.00,Wunderground v.1.12,2014-01-15 19:20:00,
2014-01-15 14:30:00,26.7,16.9,29.92,West,270,6.0,20.0,66,0.00,,,0.00,Wunderground v.1.12,2014-01-15 19:30:00,
2014-01-15 14:40:00,26.9,16.7,29.92,West,270,6.0,16.0,65,0.00,,,0.00,Wunderground v.1.12,2014-01-15 19:40:00,
2014-01-15 14:50:00,27.0,16.1,29.93,WNW,298,4.0,4.0,63,0.00,,,0.00,Wunderground v.1.12,2014-01-15 19:50:00,
2014-01-15 15:00:00,27.0,16.8,29.92,West,270,3.0,13.0,65,0.00,,,0.00,Wunderground v.1.12,2014-01-15 20:00:00,
2014-01-15 15:10:00,27.0,16.4,29.92,West,270,4.0,13.0,64,0.00,,,0.00,Wunderground v.1.12,2014-01-15 20:10:00,
2014-01-15 15:20:00,26.7,15.4,29.94,WSW,241,6.0,6.0,62,0.00,,,0.00,Wunderground v.1.12,2014-01-15 20:20:00,
2014-01-15 15:30:00,26.9,16.3,29.93,WSW,248,6.0,16.0,64,0.00,,,0.00,Wunderground v.1.12,2014-01-15 20:30:00,
2014-01-15 15:40:00,27.0,16.4,29.93,WSW,248,4.0,13.0,64,0.00,,,0.00,Wunderground v.1.12,2014-01-15 20:40:00,
2014-01-15 15:50:00,27.0,16.4,29.93,WSW,248,4.0,13.0,64,0.00,,,0.00,Wunderground v.1.12,2014-01-15 20:50:00,
2014-01-15 16:00:00,27.2,15.9,29.93,WNW,293,4.0,14.0,62,0.00,,,0.00,Wunderground v.1.12,2014-01-15 21:00:00,
2014-01-15 16:10:00,26.9,15.6,29.94,WSW,248,5.0,13.0,62,0.00,,,0.00,Wunderground v.1.12,2014-01-15 21:10:00,
2014-01-15 16:20:00,26.4,15.9,29.94,WSW,258,4.0,6.0,64,0.00,,,0.00,Wunderground v.1.12,2014-01-15 21:20:00,
2014-01-15 16:30:00,26.7,15.8,29.94,WSW,248,5.0,17.0,63,0.00,,,0.00,Wunderground v.1.12,2014-01-15 21:30:00,
2014-01-15 16:40:00,26.6,15.7,29.94,WSW,248,5.0,16.0,63,0.00,,,0.00,Wunderground v.1.12,2014-01-15 21:40:00,
2014-01-15 16:50:00,26.3,15.8,29.96,SW,219,5.0,10.0,64,0.00,,,0.00,Wunderground v.1.12,2014-01-15 21:50:00,
2014-01-15 17:00:00,26.4,15.9,29.94,WSW,248,6.0,14.0,64,0.00,,,0.00,Wunderground v.1.12,2014-01-15 22:00:00,
2014-01-15 17:10:00,26.4,16.6,29.94,West,270,4.0,12.0,66,0.00,,,0.00,Wunderground v.1.12,2014-01-15 22:10:00,
2014-01-15 17:20:00,26.1,16.6,29.97,West,268,4.0,4.0,67,0.00,,,0.00,Wunderground v.1.12,2014-01-15 22:20:00,
2014-01-15 17:40:00,26.3,15.4,29.95,SW,225,5.0,12.0,63,0.00,,,0.00,Wunderground v.1.12,2014-01-15 22:40:00,
2014-01-15 17:50:00,26.4,15.9,29.96,WSW,248,4.0,12.0,64,0.00,,,0.00,Wunderground v.1.12,2014-01-15 22:50:00,
2014-01-15 18:00:00,26.3,16.1,29.96,West,270,4.0,13.0,65,0.00,,,0.00,Wunderground v.1.12,2014-01-15 23:00:00,
2014-01-15 18:10:00,26.3,16.5,29.97,West,270,3.0,11.0,66,0.00,,,0.00,Wunderground v.1.12,2014-01-15 23:10:00,
2014-01-15 18:20:00,26.3,16.5,29.97,West,270,3.0,11.0,66,0.00,,,0.00,Wunderground v.1.12,2014-01-15 23:20:00,
2014-01-15 18:40:00,26.1,16.6,29.97,West,270,3.0,12.0,67,0.00,,,0.00,Wunderground v.1.12,2014-01-15 23:40:00,
2014-01-15 18:50:00,25.8,16.3,29.98,WSW,248,5.0,18.0,67,0.00,,,0.00,Wunderground v.1.12,2014-01-15 23:50:00,
2014-01-15 19:10:00,25.7,16.6,29.98,WSW,248,6.0,16.0,68,0.00,,,0.00,Wunderground v.1.12,2014-01-16 00:10:00,
2014-01-15 19:20:00,25.6,16.8,29.99,SW,225,4.0,11.0,69,0.00,,,0.00,Wunderground v.1.12,2014-01-16 00:20:00,
2014-01-15 19:30:00,25.4,16.6,29.99,WSW,248,5.0,14.0,69,0.00,,,0.00,Wunderground v.1.12,2014-01-16 00:30:00,
2014-01-15 19:40:00,25.3,16.9,29.98,WSW,248,5.0,13.0,70,0.00,,,0.00,Wunderground v.1.12,2014-01-16 00:40:00,
2014-01-15 19:50:00,24.5,16.1,29.98,WSW,240,4.0,4.0,70,0.00,,,0.00,Wunderground v.1.12,2014-01-16 00:50:00,
2014-01-15 20:00:00,25.0,16.3,29.98,SW,225,4.0,10.0,69,0.00,,,0.00,Wunderground v.1.12,2014-01-16 01:00:00,
2014-01-15 20:10:00,24.8,16.1,29.98,SW,225,3.0,13.0,69,0.00,,,0.00,Wunderground v.1.12,2014-01-16 01:10:00,
2014-01-15 20:20:00,24.8,16.1,29.98,SW,225,3.0,13.0,69,0.00,,,0.00,Wunderground v.1.12,2014-01-16 01:20:00,
2014-01-15 20:40:00,24.7,16.0,29.98,WSW,248,4.0,12.0,69,0.00,,,0.00,Wunderground v.1.12,2014-01-16 01:40:00,
2014-01-15 20:50:00,24.7,16.3,29.98,SW,225,2.0,8.0,70,0.00,,,0.00,Wunderground v.1.12,2014-01-16 01:50:00,
2014-01-15 21:00:00,24.5,16.1,29.98,West,270,3.0,12.0,70,0.00,,,0.00,Wunderground v.1.12,2014-01-16 02:00:00,
2014-01-15 21:10:00,24.4,16.0,29.98,SW,225,4.0,12.0,70,0.00,,,0.00,Wunderground v.1.12,2014-01-16 02:10:00,
2014-01-15 21:20:00,23.3,14.6,29.99,WSW,258,4.0,4.0,69,0.00,,,0.00,Wunderground v.1.12,2014-01-16 02:20:00,
2014-01-15 21:40:00,24.2,15.8,29.98,WSW,248,4.0,11.0,70,0.00,,,0.00,Wunderground v.1.12,2014-01-16 02:40:00,
2014-01-15 21:50:00,24.1,15.4,29.99,WSW,248,4.0,11.0,69,0.00,,,0.00,Wunderground v.1.12,2014-01-16 02:50:00,
2014-01-15 22:00:00,23.9,15.2,29.99,WSW,248,3.0,11.0,69,0.00,,,0.00,Wunderground v.1.12,2014-01-16 03:00:00,
2014-01-15 22:10:00,23.5,14.8,29.99,West,270,4.0,10.0,69,0.00,,,0.00,Wunderground v.1.12,2014-01-16 03:10:00,
2014-01-15 22:20:00,22.4,14.4,29.97,West,260,1.0,3.0,71,0.00,,,0.00,Wunderground v.1.12,2014-01-16 03:20:00,
2014-01-15 22:30:00,23.2,14.5,29.99,WSW,248,3.0,8.0,69,0.00,,,0.00,Wunderground v.1.12,2014-01-16 03:30:00,
2014-01-15 22:40:00,22.9,14.6,29.98,West,270,3.0,12.0,70,0.00,,,0.00,Wunderground v.1.12,2014-01-16 03:40:00,
2014-01-15 22:50:00,22.9,14.6,29.98,West,270,3.0,12.0,70,0.00,,,0.00,Wunderground v.1.12,2014-01-16 03:50:00,
2014-01-15 23:10:00,22.5,14.2,29.98,West,270,3.0,11.0,70,0.00,,,0.00,Wunderground v.1.12,2014-01-16 04:10:00,
2014-01-15 23:20:00,22.4,14.1,29.97,West,270,1.0,8.0,70,0.00,,,0.00,Wunderground v.1.12,2014-01-16 04:20:00,
2014-01-15 23:40:00,22.5,14.5,29.97,West,270,2.0,7.0,71,0.00,,,0.00,Wunderground v.1.12,2014-01-16 04:40:00,
2014-01-15 23:50:00,22.7,14.7,29.97,WSW,248,2.0,7.0,71,0.00,,,0.00,Wunderground v.1.12,2014-01-16 04:50:00,